EST,Max TemperatureF,Mean TemperatureF,Min TemperatureF,Max Dew PointF,MeanDew PointF,Min DewpointF,Max Humidity, Mean Humidity, Min Humidity, Max Sea Level PressureIn, Mean Sea Level PressureIn, Min Sea Level PressureIn, Max VisibilityMiles, Mean VisibilityMiles, Min VisibilityMiles, Max Wind SpeedMPH, Mean Wind SpeedMPH, Max Gust SpeedMPH,PrecipitationIn, CloudCover, Events, WindDirDegrees
2012-11-1,66,50,35,32,24,12,81,41,12,29.96,29.89,29.84,10,10,10,15,2,25,0.00,0,,263
2012-11-2,77,56,35,45,35,23,75,48,24,30.01,29.95,29.87,10,10,10,18,3,28,0.00,0,,250
2012-11-3,78,58,39,52,40,34,93,59,21,30.13,30.05,29.98,10,10,10,7,0,,0.00,0,,216
2012-11-4,84,68,51,59,53,48,100,66,32,30.03,29.97,29.90,10,10,5,17,3,26,0.01,1,Rain,252
2012-11-5,64,55,46,55,43,37,94,67,37,30.08,30.02,29.96,10,10,5,13,3,18,0.00,1,,31
2012-11-6,51,43,35,43,38,32,93,72,54,30.03,29.98,29.94,10,10,9,15,5,22,0.00,5,Rain,39
2012-11-7,48,42,35,45,39,34,100,90,81,30.00,29.94,29.90,10,9,3,5,0,,0.00,6,Rain,320
2012-11-8,66,50,35,43,36,27,100,70,24,30.17,30.10,30.00,10,8,2,13,2,17,0.00,0,,310
2012-11-9,71,52,32,37,33,27,100,63,19,30.30,30.24,30.17,10,10,3,7,0,,0.00,0,,236
2012-11-10,73,52,32,39,35,32,100,62,22,30.39,30.34,30.28,10,10,10,7,0,,0.00,0,,186
2012-11-11,75,57,39,57,48,36,93,74,47,30.45,30.39,30.36,10,10,10,9,1,,0.00,3,,106
2012-11-12,73,64,55,64,61,55,100,90,69,30.36,30.28,30.20,10,7,0,10,1,,0.06,3,Fog-Rain,157
2012-11-13,64,58,51,63,56,46,100,90,77,30.33,30.24,30.17,10,8,0,15,4,20,0.00,7,Fog,22
2012-11-14,51,50,48,46,41,37,82,70,58,30.40,30.33,30.26,10,10,10,14,9,21,0.00,8,,38
2012-11-15,51,46,42,45,43,37,100,90,58,30.29,30.26,30.23,10,8,1,15,7,18,0.54,8,Rain-Thunderstorm,7
2012-11-16,60,50,41,45,43,39,100,80,52,30.33,30.28,30.24,10,10,9,12,6,17,0.00,4,,25
2012-11-17,57,48,39,39,35,28,93,60,33,30.41,30.35,30.32,10,10,10,17,7,22,0.00,2,,25
2012-11-18,59,54,50,48,43,36,77,65,54,30.36,30.31,30.26,10,10,8,15,11,26,0.00,7,,9
2012-11-19,66,58,51,52,48,45,88,72,56,30.26,30.21,30.16,10,10,10,15,10,21,0.00,6,,10
2012-11-20,68,55,42,48,45,41,100,73,46,30.18,30.12,30.05,10,10,10,9,4,,0.00,0,,357
2012-11-21,66,52,37,46,40,36,100,75,35,30.17,30.12,30.08,10,10,10,12,2,17,0.00,0,,9
2012-11-22,66,50,33,37,34,30,100,63,28,30.26,30.20,30.16,10,10,8,14,2,18,0.00,0,,16
2012-11-23,71,52,32,45,38,30,100,69,33,30.19,30.10,29.97,10,10,8,12,2,16,0.00,0,,235
2012-11-24,60,48,33,45,33,27,87,56,29,30.12,30.05,29.97,10,10,10,13,3,,0.00,0,,293
2012-11-25,60,45,30,32,27,23,93,62,25,30.21,30.15,30.09,10,10,10,8,0,,0.00,0,,213
2012-11-26,71,50,30,32,27,19,93,57,14,30.25,30.19,30.14,10,10,10,8,1,,0.00,0,,227
2012-11-27,57,47,37,52,44,32,100,82,51,30.21,30.17,30.11,10,8,3,5,0,,0.04,7,Rain,280
2012-11-28,59,47,35,52,44,34,100,80,48,30.40,30.30,30.18,10,9,4,9,3,,0.00,4,,26
2012-11-29,62,46,30,39,32,28,100,70,29,30.48,30.41,30.37,10,10,8,10,1,,0.00,0,,78
2012-11-30,66,50,35,48,42,32,100,75,52,30.42,30.35,30.30,10,10,9,6,0,,0.00,3,,112